Regional Weather Roundup
Issued by NWS

Home | Current Version | Previous Version | Graphics & Text | Print | Product List | Glossary On
Versions: 1 2 3 4 5 6 7 8 9 10 11 12 13 14 15 16 17 18 19 20 21 22 23 24 25 26 27 28 29 30 31 32 33 34 35 36 37 38 39 40 41 42 43 44 45 46 47 48 49 50
000
ASUS45 KBOI 250210
RWRID

IDAHO REGIONAL WEATHER ROUNDUP
NATIONAL WEATHER SERVICE BOISE ID
800 PM MDT SAT JUN 24 2017

NOTE: "FAIR" INDICATES FEW OR NO CLOUDS BELOW 12000 FEET
WITH NO SIGNIFICANT WEATHER AND/OR OBSTRUCTIONS TO VISIBILITY

IDZ012-014-250300-
SOUTHWEST IDAHO


CITY           SKY/WX    TMP DP  RH WIND       PRES   REMARKS
BOISE          SUNNY     86  34  15 W10       30.08S
CALDWELL       SUNNY     86  41  20 W6        30.06F
$$

IDZ016-017-250300-
SOUTHCENTRAL IDAHO


CITY           SKY/WX    TMP DP  RH WIND       PRES   REMARKS
BURLEY         SUNNY     79  37  22 SW10      30.14S
JEROME         SUNNY     82  35  18 W7        30.15S
TWIN FALLS       N/A     82  30  15 W7        30.16S
$$

IDZ019>023-250300-
SOUTHEAST IDAHO


CITY           SKY/WX    TMP DP  RH WIND       PRES   REMARKS
IDAHO FALLS    MOSUNNY   79  36  21 SE8       30.21S
POCATELLO      MOSUNNY   82  39  21 CALM      30.18S
REXBURG        SUNNY     76  35  22 S8        30.21S
$$

IDZ006-010-011-018-031-032-250300-
CENTRAL IDAHO MOUNTAINS


CITY           SKY/WX    TMP DP  RH WIND       PRES   REMARKS
MCCALL         SUNNY     77  35  21 W9        30.22S
HAILEY         SUNNY     77  46  33 SW9       30.21S
STANLEY          N/A     77  30  17 NW6       30.30R
SALMON         SUNNY     79  39  24 N5        30.14R
CHALLIS        SUNNY     78  38  23 N7        30.19R
$$

IDZ002-004-006-007-026-250300-
NORTHERN IDAHO


CITY           SKY/WX    TMP DP  RH WIND       PRES   REMARKS
LEWISTON       SUNNY     89  37  16 NE6       30.08F
LOWELL           N/A     72  54  53 CALM      30.07S
COEUR D`ALENE  SUNNY     83  36  18 VRB3      30.16S
MULLAN PASS    SUNNY     68  35  29 CALM      30.34S
$$



USA.gov is the U.S. government's official web portal to all federal, state and local government web resources and services.